This demonstration page uses our WeatherBlox Daily Observations layout. Learn more.

Left ArrowRight Arrow

Hourly Observations for November 6, 2019

Temp ( °F °C ) Dew Point ( °F °C ) Humidity (%) Winds ( mph kmh ) Pressure ( in mb ) Visibility ( mi km ) Precip ( " mm )
12:53 am 00:53 Clear 53 11.7 38 3.3 57 57 Calm 29.99 1016 10 16 0.00 0.00
1:53 am 01:53 Clear 53 11.7 40 4.4 61 61 Calm 30.00 1016 10 16 0.00 0.00
2:53 am 02:53 Clear 51 10.6 39 3.9 64 64 Calm 29.99 1016 10 16 0.00 0.00
3:53 am 03:53 Clear 48 8.9 39 3.9 71 71 Calm 29.99 1016 10 16 0.00 0.00
4:53 am 04:53 Clear 47 8.3 38 3.3 71 71 Calm 30.00 1016 10 16 0.00 0.00
5:53 am 05:53 Clear 46 7.8 38 3.3 73 73 Calm 30.01 1016 10 16 0.00 0.00
6:53 am 06:53 Sunny 43 6.1 35 1.7 74 74 N 3 6 30.02 1017 10 16 0.00 0.00
7:53 am 07:53 Sunny 50 10 38 3.3 63 63 Calm 30.03 1017 10 16 0.00 0.00
8:53 am 08:53 Sunny 56 13.3 41 5 57 57 Calm 30.04 1017 10 16 0.00 0.00
9:53 am 09:53 Sunny 64 17.8 40 4.4 41 41 Calm 30.02 1017 10 16 0.00 0.00
10:53 am 10:53 Sunny 69 20.6 42 5.6 38 38 Calm 30.01 1016 10 16 0.00 0.00
11:53 am 11:53 Sunny 75 23.9 40 4.4 28 28 Calm 29.98 1015 10 16 0.00 0.00
12:53 pm 12:53 Sunny 78 25.6 40 4.4 26 26 VRB 3 6 29.95 1014 10 16 0.00 0.00
1:53 pm 13:53 Sunny 80 26.7 37 2.8 21 21 SSW 3 6 29.93 1013 10 16 0.00 0.00
2:53 pm 14:53 Sunny 81 27.2 36 2.2 20 20 Calm 29.92 1013 10 16 0.00 0.00
3:53 pm 15:53 Sunny 80 26.7 36 2.2 20 20 SSE 3 6 29.91 1013 10 16 0.00 0.00
4:53 pm 16:53 Sunny 74 23.3 39 3.9 28 28 SSE 3 6 29.92 1013 10 16 0.00 0.00
5:53 pm 17:53 Clear 69 20.6 39 3.9 33 33 Calm 29.93 1014 10 16 0.00 0.00
6:53 pm 18:53 Clear 59 15 39 3.9 48 48 W 3 6 29.95 1014 10 16 0.00 0.00
7:53 pm 19:53 Clear 58 14.4 39 3.9 50 50 Calm 29.96 1015 10 16 0.00 0.00
8:53 pm 20:53 Clear 55 12.8 37 2.8 51 51 Calm 29.97 1015 10 16 0.00 0.00
9:53 pm 21:53 Clear 52 11.1 38 3.3 59 59 Calm 29.98 1015 10 16 0.00 0.00
10:53 pm 22:53 Clear 50 10 36 2.2 59 59 Calm 30.00 1016 10 16 0.00 0.00
11:53 pm 23:53 Clear 48 8.9 35 1.7 61 61 VRB 3 6 30.01 1016 10 16 0.00 0.00

Powered by AerisWeather